K2MST Weather Reports


time (UTC)temp
C
wind
direction
speed
KPH
gust
KPH
rain 1hr
cm
rain 24hr
cm
rain mn
cm
humidity
%
barometer
mb
20260502203018 8 293 12.9 22.5 0.00 0.41 0.03 50 1011.4
20260502202018 8 315 8.0 17.7 0.00 0.41 0.03 51 1011.5
20260502201018 8 293 4.8 14.5 0.00 0.41 0.03 53 1011.6
20260502200018 8 338 6.4 16.1 0.00 0.41 0.03 54 1011.7
20260502195018 7 23 8.0 19.3 0.00 0.41 0.03 55 1011.8
20260502194018 7 23 9.7 19.3 0.00 0.41 0.03 57 1011.9
20260502193018 8 338 6.4 16.1 0.00 0.41 0.03 55 1011.9
20260502192018 8 0 8.0 17.7 0.00 0.41 0.03 56 1012.0
20260502191018 7 338 8.0 19.3 0.00 0.41 0.03 57 1012.1
20260502190018 7 338 8.0 17.7 0.00 0.41 0.03 57 1012.1
20260502185038 7 338 12.9 24.1 0.00 0.41 0.03 58 1012.1
20260502184018 7 338 11.3 20.9 0.00 0.41 0.03 57 1012.1
20260502183018 7 315 8.0 14.5 0.00 0.41 0.03 58 1012.1
20260502182018 7 338 8.0 19.3 0.00 0.41 0.03 57 1012.0
20260502181018 8 338 9.7 17.7 0.00 0.41 0.03 56 1011.9
20260502164038 8 248 6.4 16.1 0.00 0.41 0.03 50 1011.8
20260502163018 8 270 8.0 17.7 0.00 0.41 0.03 49 1011.9
20260502162018 8 293 6.4 16.1 0.00 0.41 0.03 47 1011.9
20260502161021 8 293 6.4 11.3 0.00 0.41 0.03 48 1011.9
20260502152038 8 293 6.4 17.7 0.00 0.41 0.03 54 1012.3
20260502151017 7 270 6.4 17.7 0.00 0.41 0.03 58 1012.4
20260502123039 5 293 11.3 22.5 0.00 0.41 0.03 73 1013.1
20260502122039 5 293 12.9 24.1 0.00 0.41 0.03 74 1013.1
20260502121019 5 293 11.3 20.9 0.00 0.41 0.03 76 1013.0
20260502115039 4 293 11.3 22.5 0.00 0.41 0.03 78 1012.9
20260502114019 5 293 8.0 17.7 0.00 0.41 0.03 81 1012.9
20260502113019 4 293 6.4 17.7 0.00 0.41 0.03 81 1012.7
20260502112018 4 293 4.8 14.5 0.00 0.41 0.03 82 1012.7
20260502111019 5 338 6.4 17.7 0.00 0.41 0.03 81 1012.6
20260502110019 5 293 6.4 14.5 0.00 0.41 0.03 84 1012.3
20260502105018 5 270 4.8 14.5 0.00 0.41 0.03 86 1012.2
20260502104018 4 248 3.2 11.3 0.00 0.41 0.03 86 1012.1
20260502103018 4 225 3.2 8.0 0.00 0.41 0.03 86 1012.0
20260502102018 5 248 3.2 11.3 0.00 0.41 0.03 85 1011.9
20260502101018 5 270 6.4 14.5 0.00 0.41 0.03 85 1011.8
20260502091018 4 248 1.6 4.8 0.00 0.41 0.03 90 1011.2
20260502071019 4 180 3.2 4.8 0.00 0.41 0.03 89 1011.0
20260502070017 4 158 1.6 3.2 0.00 0.41 0.03 89 1010.9
20260502065018 4 158 1.6 4.8 0.00 0.41 0.03 89 1011.0
20260502064018 4 180 3.2 6.4 0.00 0.41 0.03 89 1010.9
20260502063017 4 0.0 0.0 0.00 0.41 0.03 88 1010.8
20260502062017 4 0.0 0.0 0.00 0.41 0.03 89 1010.7
20260502061018 4 0.0 0.0 0.00 0.41 0.03 88 1010.7
20260502060017 4 0.0 1.6 0.00 0.41 0.03 88 1010.9
20260502055139 4 0.0 1.6 0.00 0.41 0.03 88 1011.1
20260502054017 4 0.0 1.6 0.00 0.41 0.03 88 1011.3
20260502053101 4 225 1.6 3.2 0.00 0.41 0.03 88 1011.4
20260502052017 4 0.0 3.2 0.00 0.41 0.03 88 1011.4
20260502051017 4 0.0 1.6 0.00 0.41 0.03 88 1011.3
20260502050017 4 225 1.6 3.2 0.03 0.41 0.03 88 1011.3
20260502045017 4 0.0 3.2 0.03 0.41 0.03 88 1011.3
20260502044017 4 203 1.6 3.2 0.03 0.41 0.03 88 1011.2
20260502043017 4 203 3.2 4.8 0.03 0.41 0.03 87 1011.3
20260502042017 4 203 1.6 4.8 0.03 0.41 0.03 87 1011.3
20260502041017 4 248 1.6 3.2 0.05 0.41 0.03 86 1011.3
20260502040018 4 0.0 1.6 0.03 0.38 0.38 87 1011.3
20260502035017 4 0.0 1.6 0.05 0.38 0.38 86 1011.2
20260502034017 4 23 1.6 4.8 0.08 0.38 0.38 86 1011.2
20260502033017 4 45 1.6 4.8 0.08 0.38 0.38 86 1011.2
20260502032017 4 45 3.2 8.0 0.10 0.38 0.38 86 1011.1
20260502031018 4 23 1.6 3.2 0.08 0.36 0.36 86 1011.2
20260502030017 4 23 1.6 4.8 0.10 0.36 0.36 86 1011.1
20260502025037 4 45 3.2 6.4 0.10 0.33 0.33 86 1011.2
20260502024017 4 23 3.2 6.4 0.08 0.30 0.30 86 1011.2
20260502023017 4 23 3.2 8.0 0.08 0.30 0.30 86 1011.3
20260502022017 4 23 8.0 12.9 0.08 0.28 0.28 85 1011.2
20260502021017 5 23 4.8 8.0 0.08 0.28 0.28 86 1011.2
20260502020017 5 338 8.0 16.1 0.05 0.25 0.25 85 1011.2
20260502015017 5 338 8.0 11.3 0.05 0.23 0.23 85 1011.2
20260502014019 5 338 3.2 8.0 0.05 0.23 0.23 85 1011.1
20260502013039 5 23 4.8 14.5 0.05 0.23 0.23 85 1011.0
20260502012039 5 23 3.2 8.0 0.05 0.20 0.20 85 1010.9
20260502011018 5 23 4.8 9.7 0.08 0.20 0.20 84 1010.7
20260502010019 5 23 4.8 9.7 0.10 0.20 0.20 83 1010.7
20260502005019 6 338 3.2 8.0 0.10 0.18 0.18 83 1010.7
20260502004019 6 315 1.6 4.8 0.10 0.18 0.18 83 1010.6
20260502003018 6 315 3.2 8.0 0.13 0.18 0.18 82 1010.5
20260502002019 6 338 3.2 6.4 0.10 0.15 0.15 82 1010.4
20260502001019 6 293 4.8 9.7 0.10 0.13 0.13 81 1010.2
20260502000019 6 315 3.2 8.0 0.08 0.10 0.10 80 1010.2
20260501235019 7 315 1.6 6.4 0.05 0.08 0.08 79 1010.1
20260501234018 7 315 4.8 8.0 0.08 0.08 0.08 78 1010.1
20260501233018 7 293 3.2 6.4 0.05 0.05 0.05 78 1010.0
20260501232018 7 315 3.2 6.4 0.05 0.05 0.05 78 1009.9
20260501231039 7 293 4.8 9.7 0.03 0.03 0.03 76 1009.8
20260501230018 7 293 4.8 9.7 0.03 0.03 0.03 75 1009.8
20260501225018 8 338 3.2 9.7 0.03 0.03 0.03 74 1009.7
20260501224018 8 338 4.8 9.7 0.00 0.00 0.00 72 1009.7
20260501223038 8 315 6.4 9.7 0.00 0.00 0.00 68 1009.8
20260501222018 9 293 6.4 16.1 0.00 0.00 0.00 63 1009.6
20260501221018 10 338 6.4 11.3 0.00 0.00 0.00 63 1009.6
20260501220018 10 293 4.8 9.7 0.00 0.00 0.00 60 1009.5
20260501215018 11 270 4.8 8.0 0.00 0.00 0.00 59 1009.4
20260501214018 11 248 3.2 9.7 0.00 0.00 0.00 57 1009.4
20260501213018 11 293 4.8 8.0 0.00 0.00 0.00 57 1009.4
20260501212018 11 248 4.8 9.7 0.00 0.00 0.00 56 1009.3
20260501211018 11 203 4.8 14.5 0.00 0.00 0.00 54 1009.3
20260501210018 11 248 4.8 16.1 0.00 0.00 0.00 52 1009.3
20260501205018 11 270 6.4 11.3 0.00 0.00 0.00 53 1009.3
20260501204018 11 270 3.2 11.3 0.00 0.00 0.00 51 1009.2